This demonstration page uses our WeatherBlox Daily Observations layout. Learn more.

36.17497, -115.13722

Hourly Observations for February 10, 2015

Temp ( °F °C ) Dew Point ( °F °C ) Humidity (%) Winds ( mph kmh ) Pressure ( in mb ) Visibility ( mi km ) Precip ( " mm )
12:53 am 00:53 Clear 59 15 33 0.6 38 38 NW 10 17 29.99 1016 10 16.0934 0 0
1:53 am 01:53 Clear 59 15 31 -0.6 35 35 NNW 10 17 30 1016 10 16.0934 0 0
2:53 am 02:53 Clear 59 15 31 -0.6 35 35 NNW 16 26 30 1016 10 16.0934 0 0
3:53 am 03:53 Clear 58 14.4 32 0 38 38 N 7 11 30.02 1017 10 16.0934 0 0
4:53 am 04:53 Clear 57 13.9 32 0 39 39 NNE 13 20 30.04 1017 10 16.0934 0 0
5:53 am 05:53 Clear 57 13.9 30 -1.1 36 36 N 10 17 30.06 1018 10 16.0934 0 0
6:53 am 06:53 Sunny 57 13.9 27 -2.8 32 32 NNW 13 20 30.08 1019 10 16.0934 0 0
7:53 am 07:53 Sunny 60 15.6 25 -3.9 26 26 N 14 22 30.11 1020 10 16.0934 0 0
8:53 am 08:53 Sunny 64 17.8 23 -5 21 21 N 18 30 30.11 1020 10 16.0934 0 0
9:53 am 09:53 Sunny 66 18.9 21 -6.1 18 18 N 18 30 30.12 1020 10 16.0934 0 0
10:53 am 10:53 Sunny 69 20.6 21 -6.1 16 16 N 18 30 30.11 1020 10 16.0934 0 0
11:53 am 11:53 Sunny 70 21.1 19 -7.2 14 14 N 16 26 30.1 1019 10 16.0934 0 0
12:53 pm 12:53 Sunny 71 21.7 16 -8.9 12 12 N 15 24 30.07 1018 10 16.0934 0 0
1:53 pm 13:53 Sunny 72 22.2 12 -11.1 10 10 NNW 20 31 30.04 1017 10 16.0934 0 0
2:53 pm 14:53 Sunny 72 22.2 12 -11.1 10 10 NNW 15 24 30.03 1017 10 16.0934 0 0
3:53 pm 15:53 Sunny 72 22.2 11 -11.7 9 9 NNW 15 24 30.03 1017 10 16.0934 0 0
4:53 pm 16:53 Sunny 71 21.7 11 -11.7 10 10 NE 5 7 30.04 1017 10 16.0934 0 0
5:53 pm 17:53 Clear 68 20 11 -11.7 11 11 N 3 6 30.05 1018 10 16.0934 0 0
6:53 pm 18:53 Clear 64 17.8 13 -10.6 13 13 NNW 6 9 30.07 1018 10 16.0934 0 0
7:53 pm 19:53 Clear 62 16.7 14 -10 15 15 NNW 7 11 30.09 1019 10 16.0934 0 0
8:53 pm 20:53 Clear 60 15.6 13 -10.6 16 16 ENE 8 13 30.12 1020 10 16.0934 0 0
9:53 pm 21:53 Clear 61 16.1 18 -7.8 19 19 ENE 3 6 30.13 1020 10 16.0934 0 0
10:53 pm 22:53 Clear 57 13.9 20 -6.7 24 24 WSW 3 6 30.14 1021 10 16.0934 0 0
11:53 pm 23:53 Clear 59 15 18 -7.8 20 20 W 5 7 30.15 1021 10 16.0934 0 0

Powered by AerisWeather